[[{"header":{"parameterUnit":"m.s-1","parameterCategory":1,"la1":30.2991,"la2":30.254,"lo1":-89.0895,"lo2":-89.0444,"dy":0.0017,"dx":0.0017,"nx":28,"ny":28,"refTime":"2023-10-02T03:00:00:Z","depth":0,"parameterNumber":2,"parameterNumberName":"U-component_of_WINDS"},"data":[0,0,0,0,0,0,0,0,0,0,0,0,0,0,0,0,0,0,0,0,0,0,0,0,0,0,0,0,0,0,0,0,0,0,0,0,0,0,0,0,0,0,0,0,0,0,0,0,0,0,0,0,0,0,0,0,0,0,-5.2953,-5.2953,0,-5.2939,-5.2938,-5.2938,-5.2806,-5.2803,-5.28,-5.2797,-5.2783,-5.2786,-5.2789,0,0,0,0,0,0,0,0,0,0,0,0,0,-5.2869,-5.2871,-5.2953,-5.2953,-5.2953,-5.2939,-5.2938,-5.2938,-5.2807,-5.2803,-5.2799,-5.2795,-5.2782,-5.2786,-5.2789,0,0,0,0,0,0,0,0,0,0,0,0,0,-5.2885,-5.2872,-5.2953,-5.2885,-5.2879,-5.2939,-5.2938,-5.2938,-5.2808,-5.2803,-5.2798,-5.2793,-5.2781,-5.2785,-5.2789,-5.2913,0,0,-5.2802,-5.2804,0,0,0,0,0,0,0,0,-5.2885,-5.2889,-5.2895,-5.289,-5.2883,-5.2869,-5.2904,-5.293,-5.2809,-5.2835,-5.2796,-5.2791,-5.2816,-5.2817,-5.2825,-5.2913,-5.2912,-5.2802,-5.2805,-5.2806,-5.2808,0,0,0,0,0,0,0,-5.2884,-5.2888,-5.2947,-5.2896,-5.2888,-5.2857,-5.2853,-5.2908,-5.2853,-5.2832,-5.2823,-5.2823,-5.2812,-5.2821,-5.2824,-5.2912,-5.2802,-5.2806,-5.2808,-5.281,-5.3102,-5.3107,0,0,0,0,0,0,-5.2892,-5.2888,-5.2948,-5.2947,-5.2872,-5.2862,-5.2858,-5.2879,-5.2852,-5.2843,-5.2827,-5.2817,-5.2817,-5.2819,-5.2823,-5.2966,-5.2806,-5.281,-5.2812,-5.3096,-5.3103,-5.3108,0,0,0,0,0,0,-5.289,-5.2898,-5.2948,-5.2915,-5.2919,-5.2869,-5.2892,-5.2881,-5.289,-5.2848,-5.2838,-5.2847,-5.2813,-5.2817,-5.2892,-5.2964,-5.2812,-5.2816,-5.309,-5.3098,-5.3106,-5.3254,0,0,0,0,0,0,-5.2888,-5.2898,-5.2944,-5.2917,-5.2921,-5.3017,-5.2897,-5.2884,-5.2898,-5.2884,-5.2864,-5.2856,-5.281,-5.2887,-5.2896,-5.2966,-5.2819,-5.3083,-5.3094,-5.3103,-5.3242,-5.3266,-5.3286,0,0,0,0,0,-5.2886,-5.2986,-5.2947,-5.2955,-5.2977,-5.3021,-5.3024,-5.2968,-5.2904,-5.295,-5.2923,-5.2857,-5.2955,-5.2895,-5.2905,-5.2978,-5.3078,-5.3091,-5.3102,-5.3232,-5.3261,-5.3285,0,0,0,0,0,0,-5.3023,-5.2981,-5.2937,-5.3032,-5.3031,-5.2999,-5.3055,-5.3,-5.3017,-5.3004,-5.2934,-5.2931,-5.3017,-5.3005,-5.2939,-5.3097,-5.3005,-5.302,-5.3101,-5.3128,-5.3149,-5.3149,-5.2822,0,0,0,0,0,-5.3064,-5.3103,-5.3065,-5.3152,-5.3154,-5.3105,-5.3122,-5.308,-5.3076,-5.3075,-5.3053,-5.3053,-5.3084,-5.3106,-5.3132,-5.3241,-5.3235,-5.3296,-5.3318,-5.3336,-5.3349,-5.3406,-5.3433,-5.3148,-5.3148,-5.3147,0,0,-5.315,-5.3132,-5.316,-5.3179,-5.3173,-5.3216,-5.3106,-5.3155,-5.3186,-5.3083,-5.3151,-5.3137,-5.3132,-5.3225,-5.3264,-5.3217,-5.3427,-5.3351,-5.3366,-5.3369,-5.3421,-5.3448,-5.3472,-5.3156,-5.3154,-5.3153,0,0,-5.3326,-5.3317,-5.3389,-5.3386,-5.3379,-5.3346,-5.3364,-5.3341,-5.3327,-5.3395,-5.3319,-5.3356,-5.341,-5.341,-5.3417,-5.3598,-5.3537,-5.3609,-5.3722,-5.3779,-5.3801,-5.3821,-5.3885,-5.3909,-5.3622,-5.3622,-5.3622,0,-5.3433,-5.3493,-5.3433,-5.3487,-5.3498,-5.3408,-5.348,-5.3481,-5.3483,-5.3493,-5.3441,-5.3508,-5.3499,-5.3591,-5.3635,-5.3644,-5.3662,-5.3609,-5.3803,-5.3822,-5.3839,-5.39,-5.3924,-5.3631,-5.363,-5.3629,-5.3628,0,-5.3625,-5.3668,-5.3727,-5.3731,-5.3749,-5.3813,-5.3763,-5.3789,-5.3746,-5.372,-5.3791,-5.3777,-5.3799,-5.3818,-5.3777,-5.3905,-5.3876,-5.3815,-5.3721,-5.3876,-5.3932,-5.3954,-5.3643,-5.364,-5.3637,-5.3635,0,0,-5.3884,-5.3856,-5.3879,-5.388,-5.3868,-5.39,-5.3961,-5.3982,-5.4006,-5.4012,-5.4061,-5.4111,-5.4054,-5.4063,-5.4021,-5.4071,-5.4216,-5.4004,-5.4002,-5.4043,-5.4356,-5.4401,-5.4429,-5.4177,-5.4181,-5.4184,-5.4356,0,-5.4053,-5.4153,-5.4102,-5.4209,-5.4249,-5.4166,-5.4219,-5.4218,-5.4195,-5.4227,-5.4202,-5.4238,-5.4161,-5.4166,-5.4212,-5.4188,-5.4277,-5.4175,-5.4222,-5.4224,-5.4223,-5.4458,-5.4505,-5.4668,-5.4378,-5.4381,-5.4384,0,-5.4262,-5.4277,-5.4389,-5.437,-5.4385,-5.4433,-5.445,-5.4481,-5.4479,-5.4459,-5.4471,-5.4418,-5.4477,-5.4386,-5.4467,-5.4399,-5.4416,-5.4408,-5.4413,-5.4413,-5.4312,-5.4463,-5.4718,-5.4742,-5.4418,-5.4415,-5.4413,0,-5.4439,-5.4488,-5.456,-5.4565,-5.4545,-5.4581,-5.4575,-5.4568,-5.4585,-5.46,-5.4611,-5.4633,-5.4645,-5.4665,-5.462,-5.4558,-5.4707,-5.4613,-5.4693,-5.4694,-5.4725,-5.4724,-5.4985,-5.474,-5.474,-5.4739,-5.4739,0,-5.4632,-5.4703,-5.464,-5.4684,-5.4762,-5.4704,-5.4783,-5.4768,-5.4764,-5.4805,-5.4735,-5.4776,-5.4715,-5.475,-5.4715,-5.4788,-5.4794,-5.478,-5.477,-5.4785,-5.4787,-5.4793,-5.478,-5.4746,-5.4744,-5.4743,-5.4742,0,-5.4841,-5.4801,-5.4875,-5.4852,-5.4848,-5.4906,-5.4886,-5.4927,-5.4902,-5.4955,-5.4964,-5.4924,-5.4962,-5.492,-5.4954,-5.4931,-5.5029,-5.5003,-5.5029,-5.5021,-5.5103,-5.5095,-5.5376,-5.541,-5.5145,-5.5148,-5.515,0,-5.4965,-5.5018,-5.5001,-5.5023,-5.5021,-5.5059,-5.5076,-5.5022,-5.5043,-5.5046,-5.5088,-5.5119,-5.5141,-5.5206,-5.518,-5.5207,-5.518,-5.5277,-5.5183,-5.5198,-5.518,-5.5177,-5.5182,-5.5295,-5.5298,-5.5301,-5.5303,0,-5.519,-5.5169,-5.5195,-5.5217,-5.524,-5.5254,-5.5263,-5.5286,-5.523,-5.5258,-5.5295,-5.5313,-5.5349,-5.5381,-5.5401,-5.5396,-5.5341,-5.5333,-5.5353,-5.5368,-5.538,-5.5374,-5.5079,-5.5326,-5.5324,-5.5322,-5.5321,-5.532,-5.5359,-5.5402,-5.5398,-5.5431,-5.5432,-5.5443,-5.5481,-5.5461,-5.5491,-5.5515,-5.5483,-5.553,-5.5529,-5.5549,-5.5551,-5.5588,-5.5546,-5.5575,-5.5582,-5.5589,-5.5601,-5.5377,-5.5591,-5.5591,-5.559,-5.5589,-5.5589,0,-5.5579,-5.5573,-5.5604,-5.5619,-5.5646,-5.5593,-5.5601,-5.5627,-5.5669,-5.5672,-5.5696,-5.5741,-5.5773,-5.5752,-5.5779,-5.5813,-5.5788,-5.5822,-5.5817,-5.5817,-5.5637,-5.5616,-5.5841,-5.5841,-5.5841,-5.5841,-5.5841,-5.5841,-5.5696,-5.5767,-5.5746,-5.5818,-5.581,-5.5856,-5.5865,-5.5875,-5.5878,-5.593,-5.5956,-5.5943,-5.5937,-5.5964,-5.5991,-5.5984,-5.5997,-5.6039,-5.6023,-5.5855,-5.583,-5.5806,-5.5786,-5.6043,-5.6043,-5.62,-5.6202,-5.6203]},{"header":{"parameterUnit":"m.s-1","parameterCategory":1,"la1":30.2991,"la2":30.254,"lo1":-89.0895,"lo2":-89.0444,"dy":0.0017,"dx":0.0017,"nx":28,"ny":28,"refTime":"2023-10-02T03:00:00:Z","depth":0,"parameterNumber":3,"parameterNumberName":"V-component_of_WINDS"},"data":[0,0,0,0,0,0,0,0,0,0,0,0,0,0,0,0,0,0,0,0,0,0,0,0,0,0,0,0,0,0,0,0,0,0,0,0,0,0,0,0,0,0,0,0,0,0,0,0,0,0,0,0,0,0,0,0,0,0,1.9163,1.9163,0,1.9133,1.9133,1.9133,1.9172,1.9173,1.9175,1.9176,1.9137,1.9134,1.9132,0,0,0,0,0,0,0,0,0,0,0,0,0,1.9246,1.9244,1.9163,1.9163,1.9162,1.9133,1.9133,1.9133,1.9171,1.9173,1.9175,1.9177,1.9138,1.9135,1.9132,0,0,0,0,0,0,0,0,0,0,0,0,0,1.9212,1.9244,1.9163,1.9178,1.9179,1.9134,1.9133,1.9133,1.9171,1.9173,1.9175,1.9177,1.9139,1.9135,1.9132,1.9067,0,0,1.9121,1.9119,0,0,0,0,0,0,0,0,1.9214,1.9209,1.9176,1.9177,1.9178,1.9159,1.9148,1.911,1.917,1.9174,1.9176,1.9178,1.9142,1.9138,1.9128,1.9065,1.9063,1.912,1.9118,1.9117,1.9116,0,0,0,0,0,0,0,1.9216,1.9211,1.9151,1.9176,1.9177,1.9184,1.9182,1.9141,1.9146,1.9174,1.9177,1.9173,1.9143,1.9131,1.9127,1.9062,1.912,1.9117,1.9115,1.9114,1.8945,1.8942,0,0,0,0,0,0,1.9218,1.9212,1.9152,1.915,1.9202,1.9181,1.9179,1.9163,1.9146,1.9146,1.9171,1.9175,1.9136,1.9131,1.9126,1.9048,1.9117,1.9113,1.9111,1.8947,1.8944,1.8942,0,0,0,0,0,0,1.922,1.9212,1.9153,1.9182,1.9175,1.9178,1.9159,1.9161,1.9149,1.9145,1.9145,1.9159,1.9137,1.9131,1.9082,1.9047,1.9112,1.9108,1.895,1.8946,1.8943,1.8892,0,0,0,0,0,0,1.9222,1.9213,1.9189,1.9181,1.9174,1.9111,1.9157,1.9159,1.9144,1.9149,1.9133,1.9132,1.9139,1.9087,1.9078,1.9043,1.9106,1.8953,1.8948,1.8944,1.8897,1.8887,1.8879,0,0,0,0,0,1.9225,1.9174,1.9188,1.918,1.9145,1.9109,1.9105,1.9115,1.9141,1.9117,1.9114,1.9133,1.9053,1.9081,1.9072,1.9035,1.8955,1.895,1.8944,1.8901,1.8889,1.8879,0,0,0,0,0,0,1.9174,1.9173,1.9188,1.9134,1.9122,1.9116,1.9085,1.9103,1.908,1.9085,1.9097,1.9093,1.904,1.9033,1.9065,1.8972,1.9008,1.9,1.8978,1.8967,1.8958,1.8959,1.9103,0,0,0,0,0,1.9158,1.9132,1.9131,1.9083,1.9077,1.9082,1.9067,1.9077,1.9063,1.9057,1.9051,1.9035,1.9006,1.8986,1.896,1.8897,1.8893,1.8868,1.8859,1.8852,1.8844,1.8809,1.8797,1.8924,1.8924,1.8924,0,0,1.9121,1.9118,1.91,1.9073,1.9065,1.9035,1.9077,1.9044,1.9021,1.9051,1.9005,1.9,1.8983,1.8926,1.8901,1.8919,1.8809,1.8845,1.8839,1.8835,1.8803,1.8791,1.878,1.8921,1.8921,1.8922,0,0,1.904,1.9035,1.8995,1.8987,1.8975,1.8979,1.897,1.8962,1.8961,1.8915,1.8937,1.891,1.886,1.8847,1.8834,1.8751,1.8766,1.8741,1.8694,1.866,1.865,1.8641,1.8609,1.8598,1.8735,1.8734,1.8734,0,1.8995,1.8954,1.8971,1.8937,1.8924,1.8954,1.8912,1.8902,1.8881,1.887,1.8892,1.8831,1.8822,1.8762,1.8743,1.8732,1.8719,1.8741,1.8651,1.8642,1.8634,1.8604,1.8592,1.8731,1.8732,1.8732,1.8732,0,1.8899,1.887,1.8838,1.882,1.8804,1.8766,1.8776,1.8757,1.8769,1.8771,1.8724,1.8714,1.8686,1.8674,1.8683,1.8616,1.8627,1.8649,1.8685,1.8618,1.859,1.8579,1.8727,1.8728,1.8729,1.873,0,0,1.878,1.8776,1.8764,1.8756,1.8747,1.8723,1.8687,1.8663,1.8645,1.863,1.8598,1.8557,1.8579,1.8563,1.8573,1.8544,1.8476,1.8569,1.8569,1.855,1.8399,1.838,1.8367,1.8489,1.8486,1.8485,1.84,0,1.8698,1.8637,1.8653,1.8591,1.8563,1.8593,1.8561,1.855,1.8552,1.8527,1.8527,1.8497,1.8529,1.852,1.8493,1.849,1.8445,1.8497,1.8455,1.8454,1.8456,1.8352,1.8332,1.8252,1.8389,1.8387,1.8386,0,1.8592,1.8577,1.8513,1.8509,1.8498,1.8469,1.8449,1.8426,1.8414,1.8417,1.8402,1.8417,1.8379,1.8418,1.8364,1.8399,1.8383,1.8379,1.8377,1.837,1.8413,1.8341,1.8227,1.8214,1.8369,1.837,1.8372,0,1.851,1.8474,1.8431,1.8424,1.8418,1.8397,1.8393,1.8385,1.8369,1.8351,1.8341,1.8317,1.8303,1.8284,1.8292,1.832,1.8235,1.8276,1.8234,1.8234,1.8212,1.8212,1.8091,1.8206,1.8207,1.8207,1.8207,0,1.8415,1.8374,1.8394,1.8367,1.8322,1.8341,1.8295,1.8294,1.8287,1.8259,1.8283,1.8255,1.8269,1.8242,1.8248,1.8202,1.8196,1.8195,1.8196,1.8191,1.8191,1.8178,1.8183,1.8204,1.8204,1.8205,1.8206,0,1.8314,1.8326,1.8281,1.8282,1.8281,1.8247,1.8246,1.822,1.8225,1.8189,1.8182,1.8188,1.8158,1.8165,1.8131,1.8135,1.8076,1.8085,1.808,1.8081,1.8039,1.8042,1.7903,1.7885,1.8014,1.8013,1.8012,0,1.825,1.822,1.8219,1.8203,1.8199,1.8173,1.8159,1.8177,1.816,1.8146,1.8121,1.8094,1.8073,1.8023,1.8023,1.7997,1.8004,1.7958,1.8,1.7996,1.8001,1.8002,1.7998,1.7948,1.7947,1.7945,1.7945,0,1.8136,1.8145,1.8125,1.8107,1.809,1.8076,1.8064,1.805,1.8066,1.8046,1.8018,1.8002,1.7969,1.7941,1.7918,1.7911,1.7929,1.7932,1.7921,1.7913,1.7911,1.7909,1.8054,1.7934,1.7935,1.7936,1.7936,1.7937,1.8051,1.8025,1.8021,1.7998,1.7992,1.798,1.7956,1.796,1.7937,1.7914,1.7925,1.7891,1.7881,1.7852,1.7844,1.7816,1.7833,1.7817,1.7812,1.7807,1.7801,1.7918,1.7812,1.7812,1.7812,1.7813,1.7813,0,1.7936,1.7935,1.7914,1.7899,1.788,1.7904,1.7892,1.7874,1.7846,1.7836,1.7816,1.7783,1.7756,1.7755,1.773,1.7708,1.7715,1.77,1.77,1.7698,1.7788,1.78,1.7694,1.7694,1.7694,1.7694,1.7694,1.7694,1.7874,1.7832,1.784,1.7795,1.7795,1.7764,1.7755,1.7745,1.7737,1.77,1.7679,1.768,1.7673,1.7648,1.7624,1.7625,1.7613,1.7594,1.7597,1.768,1.7692,1.7703,1.7714,1.7592,1.7592,1.7509,1.7508,1.7507]}]]